Weather History for 41170 - December, 2012

Change the Weather History Date:

Sunday, December 30, 2012

  Actual Average Record
Temperature  
Mean Temperature 71 °F -  
Max Temperature 76 °F 71 °F - ()
Min Temperature 66 °F 55 °F - ()
Cooling Degree Days 6    
Growing Degree Days 21 (Base 50)    
Moisture  
Dew Point 52 °F    
Average Humidity 56    
Maximum Humidity 73    
Minimum Humidity 22    
Precipitation  
Precipitation 0.00 in 0.02 in - ()
Sea Level Pressure  
Sea Level Pressure 30.10 in    
Wind  
Wind Speed 8 mph ()    
Max Wind Speed 15 mph    
Max Gust Speed -    
Visibility 6.5 miles    
Events      
T = Trace of Precipitation, MM = Missing Value Source: Averaged Metar Reports

Daily Weather History Graph

Daily Weather History Graph

Search for Another Location

Airport or City:

Trip Planner

Search our weather history database for the weather conditions in past years. The results will help you decide how hot, cold, wet, or windy it might be!

Date:

Astronomy

Dec. 30, 2012 Rise Set
Actual Time 6:18 AM AST 4:54 PM AST
Civil Twilight 5:53 AM AST 5:19 PM AST
Nautical Twilight 5:25 AM AST 5:47 PM AST
Astronomical Twilight 4:57 AM AST 6:15 PM AST
Moon 6:48 PM AST (12/30) 7:25 AM AST (12/30)
Length of Visible Light 11h 25m
Length of Day
10h 35m
Waning Gibbous, 96% of the Moon is Illuminated
Dec 30
Waning Gibbous
Jan 5
Last Quarter
Jan 11
New
Jan 19
First Quarter
Jan 27
Full

Hourly Weather History & Observations

Time (AST) Temp. Dew Point Humidity Pressure Visibility Wind Dir Wind Speed Gust Speed Precip Events Conditions
12:00 AM 68.0 °F 57.2 °F 68% 30.09 in - NNW 11.5 mph - N/A   Clear
12:30 AM 68.0 °F 57.2 °F 68% 30.09 in 6.2 mi NNW 11.5 mph - N/A   Mostly Cloudy
1:00 AM 68.0 °F 57.2 °F 68% 30.09 in 6.2 mi NNW 10.4 mph - N/A   Mostly Cloudy
1:30 AM 68.0 °F 57.2 °F 68% 30.09 in 6.2 mi NNW 8.1 mph - N/A   Mostly Cloudy
2:00 AM 68.0 °F 57.2 °F 68% 30.09 in 6.2 mi NNW 9.2 mph - N/A   Mostly Cloudy
2:30 AM 68.0 °F 57.2 °F 68% 30.09 in 6.2 mi NW 5.8 mph - N/A   Mostly Cloudy
3:00 AM 67 °F 57 °F 63% 30.11 in 6 mi WNW 4.6 mph - -   Scattered Clouds
3:00 AM 68.0 °F 57.2 °F 68% 30.09 in 6.2 mi WNW 4.6 mph - N/A   Mostly Cloudy
3:30 AM 66.2 °F 57.2 °F 73% 30.09 in - NW 5.8 mph - N/A   Clear
4:00 AM 66.2 °F 57.2 °F 73% 30.09 in - NW 6.9 mph - N/A   Clear
4:30 AM 66.2 °F 57.2 °F 73% 30.12 in - WNW 5.8 mph - N/A   Clear
5:00 AM 66.2 °F 57.2 °F 73% 30.12 in - NW 4.6 mph - N/A   Clear
5:30 AM 66.2 °F 57.2 °F 73% 30.12 in - WNW 5.8 mph - N/A   Clear
6:00 AM 66.2 °F 55.4 °F 68% 30.12 in - WNW 5.8 mph - N/A   Clear
6:30 AM 66.2 °F 55.4 °F 68% 30.12 in - WNW 5.8 mph - N/A   Clear
7:00 AM 66.2 °F 57.2 °F 73% 30.15 in - WNW 3.5 mph - N/A   Clear
8:00 AM 68.0 °F 57.2 °F 68% 30.15 in - NW 5.8 mph - N/A   Clear
8:30 AM 68.0 °F 57.2 °F 68% 30.18 in - WNW 6.9 mph - N/A   Clear
9:00 AM 68.0 °F 57.2 °F 68% 30.18 in - NW 6.9 mph - N/A   Clear
10:00 AM 71.6 °F 55.4 °F 57% 30.18 in 6.2 mi North 8.1 mph - N/A   Partly Cloudy
10:30 AM 73.4 °F 51.8 °F 47% 30.15 in 6.2 mi NNW 8.1 mph - N/A   Partly Cloudy
11:00 AM 73.4 °F 48.2 °F 41% 30.15 in 6.2 mi North 8.1 mph - N/A   Partly Cloudy
12:00 PM 75.2 °F 42.8 °F 31% 30.12 in - North 8.1 mph - N/A   Clear
1:00 PM 75.2 °F 44.6 °F 34% 30.09 in 6.2 mi NNE 10.4 mph - N/A   Partly Cloudy
2:00 PM 75.2 °F 42.8 °F 31% 30.06 in 6.2 mi NNE 10.4 mph - N/A   Partly Cloudy
2:30 PM 75.2 °F 42.8 °F 31% 30.06 in 6.2 mi NNE 9.2 mph - N/A   Partly Cloudy
3:00 PM 74 °F 43 °F 22% 30.08 in 11 mi NNE 9.2 mph - -   Scattered Clouds
3:00 PM 73.4 °F 42.8 °F 33% 30.06 in 6.2 mi NNE 9.2 mph - N/A   Partly Cloudy
3:30 PM 73.4 °F 44.6 °F 36% 30.06 in 6.2 mi NNE 8.1 mph - N/A   Partly Cloudy
4:00 PM 73.4 °F 44.6 °F 36% 30.06 in 6.2 mi North 6.9 mph - N/A   Partly Cloudy
4:30 PM 73.4 °F 46.4 °F 38% 30.06 in 6.2 mi North 11.5 mph - N/A   Partly Cloudy
5:00 PM 71.6 °F 51.8 °F 50% 30.06 in 6.2 mi North 9.2 mph - N/A   Partly Cloudy
5:30 PM 71.6 °F 53.6 °F 53% 30.06 in 6.2 mi North 9.2 mph - N/A   Scattered Clouds
6:00 PM 69.8 °F 53.6 °F 56% 30.09 in 6.2 mi North 11.5 mph - N/A   Mostly Cloudy
6:30 PM 69.8 °F 53.6 °F 56% 30.09 in 6.2 mi North 11.5 mph - N/A   Scattered Clouds
7:00 PM 69.8 °F 50.0 °F 49% 30.09 in - NNW 15.0 mph - N/A   Clear
7:30 PM 68.0 °F 50.0 °F 52% 30.09 in - NNW 11.5 mph - N/A   Clear
8:00 PM 68.0 °F 50.0 °F 52% 30.09 in - NNW 9.2 mph - N/A   Clear
8:30 PM 68.0 °F 50.0 °F 52% 30.09 in - NNW 8.1 mph - N/A   Clear
9:00 PM 68 °F 51 °F 43% 30.12 in 9 mi NNW 6.9 mph - -  
9:00 PM 68.0 °F 50.0 °F 52% 30.09 in - NNW 6.9 mph - N/A   Clear
9:30 PM 66.2 °F 51.8 °F 60% 30.09 in - NNW 8.1 mph - N/A   Clear
10:00 PM 66.2 °F 51.8 °F 60% 30.09 in - NNW 6.9 mph - N/A   Clear
10:30 PM 66.2 °F 53.6 °F 64% 30.09 in - NNW 5.8 mph - N/A   Clear
11:00 PM 66.2 °F 50.0 °F 56% 30.09 in - NW 4.6 mph - N/A   Clear